SL-14 DEB, 45310

Orbit data source: Space-Track

SL-14 DEB, 45310 is space debris in LEO originally from a launch on Thu, 15 Aug 1991 UTC launched from the Plesetsk Missile And Space Complex (PKMTR). Debris objects in space refer to the collection of defunct objects orbiting the Earth. Examples of debris include non-operational satellites, rocket bodies, and fragments generated from explosions, collisions, or faulty payload assembly.

Loading next visibility...
Identifier
45310, 1991-056AY
Orbit
LEO
Country
Flag of CISCIS
Related business
Manufacturer
Unknown
Mission
Spacecraft
Bus & Motor
Unknown
Mass
Unknown
Launch date (UTC)
1991-08-15 (34 years ago)
Launch vehicle
Unknown
Launch site
Plesetsk Missile And Space Complex (PKMTR)
Object type
Payload
Rocket body
Debris
Shape & HBR
Unknown shape, 0.1 m
Radar Cross Section
Small (<0.1 m²)

Expand to show TLE details & history
Last TLE update: 21 hours ago

TLE from 21 hours ago
0 SL-14 DEB
1 45310U 91056AY  26035.15704579  .00000354  00000-0  11431-2 0  9992
2 45310  82.5963 294.5086 0103052  39.2521 321.6004 12.97831668281519
Epoch: 2026-02-04T03:46Z
TLE epoch observation values (Epoch: 2026-02-04T03:46:08.756Z)
Latitude
-0.00003°
Longitude
103.64445°
Altitude
1,211.913 km
Speed
7.277 km/s
True Right ascension
19h 38m 02s
True Declination
0° 00' 00"
Sunlit
Object was in daylight at epoch
Visualization orbit readout
Latitude
Unknown
Longitude
Unknown
Altitude
Unknown
Speed
Unknown
Apparent Right ascension
Unknown
Apparent Declination
Unknown
Sunlit
N/A
Visualization observer readout
Local Sidereal Time
02:17:46
Azimuth
Unknown
Elevation
Unknown
Doppler factor
Unknown
Orbital elements
Apogee altitude
1,346.661 km
Perigee altitude
1,189.073 km
Semi-major axis
7,646.004 km
Eccentricity
0.01031
Inclination
82.5963°
RAAN
294.5086°
Arg. of periapsis
39.2521°
True anomaly
320.85944°
Mean anomaly
321.6004°
Eccentric anomaly
321.23067°
Mean motion
3.24632 °/min
Orbital period
110.89 mins
BSTAR
0.0011431
Loading maneuver chart data...
Computing Atmospheric mass density...
Loading historical data...
Loading historical data...
Loading historical data...
Loading historical data...
Loading historical data...
Loading historical data...
Loading historical data...

Documentation

Showing up to 5 results
|